EW6960 Weather Reports


time (UTC)temp
F
wind
direction
speed
knots
gust
knots
rain 1hr
in
rain 24hr
in
rain mn
in
humidity
%
barometer
mb
20260505185003 56 256 1.7 5.2 0.00 0.00 0.00 66 1013.0
20260505184003 56 245 0.9 3.5 0.00 0.00 0.00 66 1012.8
20260505183003 56 246 0.9 3.5 0.00 0.00 0.00 65 1012.9
20260505182003 57 232 0.9 5.2 0.00 0.00 0.00 63 1012.9
20260505181024 57 235 1.7 5.2 0.00 0.00 0.00 62 1012.9
20260505180003 57 253 0.9 3.5 0.00 0.00 0.00 62 1012.7
20260505175003 57 251 1.7 6.1 0.00 0.00 0.00 62 1013.0
20260505174003 57 254 0.9 5.2 0.00 0.00 0.00 61 1013.0
20260505173003 58 247 1.7 5.2 0.00 0.00 0.00 62 1013.1
20260505172003 58 244 1.7 5.2 0.00 0.00 0.00 61 1013.1
20260505171003 58 249 1.7 6.1 0.00 0.00 0.00 60 1013.2
20260505170003 58 247 1.7 5.2 0.00 0.00 0.00 60 1013.1
20260505165003 58 254 1.7 6.1 0.00 0.00 0.00 62 1012.9
20260505164003 58 252 1.7 7.0 0.00 0.00 0.00 63 1013.0
20260505163024 59 258 1.7 6.1 0.00 0.00 0.00 60 1013.0
20260505162003 59 258 0.9 6.1 0.00 0.00 0.00 55 1013.0
20260505161003 59 273 1.7 6.1 0.00 0.00 0.00 57 1013.0
20260505153003 59 252 2.6 7.8 0.00 0.00 0.00 56 1013.2
20260505152024 60 258 2.6 7.0 0.00 0.00 0.00 56 1013.2
20260505151002 60 265 0.9 5.2 0.00 0.00 0.00 54 1013.1
20260505125002 60 260 1.7 7.0 0.00 0.00 0.00 53 1013.4
20260505124023 61 244 2.6 7.8 0.00 0.00 0.00 54 1013.2
20260505123002 61 258 1.7 7.0 0.00 0.00 0.00 53 1013.5
20260505122002 61 271 1.7 7.0 0.00 0.00 0.00 53 1013.3
20260505121002 61 234 2.6 7.0 0.00 0.00 0.00 54 1013.6
20260505120002 60 265 2.6 5.2 0.00 0.00 0.00 55 1013.5
20260505115002 59 270 1.7 5.2 0.00 0.00 0.00 56 1013.8
20260505114002 59 288 1.7 6.1 0.00 0.00 0.00 57 1013.6
20260505113002 58 271 1.7 6.1 0.00 0.00 0.00 58 1013.8
20260505112002 58 269 1.7 6.1 0.00 0.00 0.00 60 1013.7
20260505111002 58 270 1.7 6.1 0.00 0.00 0.00 59 1013.9
20260505102002 57 257 2.6 7.0 0.00 0.00 0.00 62 1014.3
20260505101023 57 268 1.7 6.1 0.00 0.00 0.00 61 1014.3
20260505100002 58 237 1.7 7.0 0.00 0.00 0.00 63 1013.9
20260505095002 57 249 1.7 7.0 0.00 0.00 0.00 63 1014.1
20260505094002 56 263 1.7 7.0 0.00 0.00 0.00 64 1014.3
20260505093003 56 252 1.7 6.1 0.00 0.00 0.00 65 1014.3
20260505092002 56 292 1.7 5.2 0.00 0.00 0.00 67 1014.0
20260505091002 56 304 1.7 7.8 0.00 0.00 0.00 66 1014.3
20260505090002 55 284 1.7 7.8 0.00 0.00 0.00 68 1014.5
20260505085002 55 285 1.7 6.1 0.00 0.00 0.00 70 1014.4
20260505084002 54 295 2.6 7.8 0.00 0.00 0.00 71 1014.6
20260505083002 54 279 1.7 5.2 0.00 0.00 0.00 72 1014.3
20260505082002 54 250 1.7 6.1 0.00 0.00 0.00 76 1014.5
20260505081002 51 259 0.9 2.6 0.00 0.00 0.00 81 1014.7
20260505080002 52 241 0.9 3.5 0.00 0.00 0.00 81 1014.7
20260505075002 52 250 0.9 3.5 0.00 0.00 0.00 81 1014.8
20260505074002 52 265 0.9 3.5 0.00 0.00 0.00 81 1014.7
20260505073002 51 246 1.7 5.2 0.00 0.00 0.00 81 1014.8
20260505072002 51 250 0.9 5.2 0.00 0.00 0.00 84 1014.6
20260505071002 50 243 0.9 2.6 0.00 0.00 0.00 84 1014.8
20260505070002 50 234 0.9 5.2 0.00 0.00 0.00 85 1015.0
20260505065002 51 243 0.0 2.6 0.00 0.00 0.00 86 1015.1
20260505064002 50 235 0.9 3.5 0.00 0.00 0.00 86 1014.6
20260505063002 50 239 0.9 2.6 0.00 0.00 0.00 88 1014.7
20260505062002 50 261 0.9 3.5 0.00 0.00 0.00 89 1014.4
20260505061002 50 291 0.9 3.5 0.00 0.00 0.00 90 1014.5
20260505060002 50 282 0.9 3.5 0.00 0.00 0.00 91 1014.3
20260505055002 50 267 0.9 2.6 0.00 0.00 0.00 93 1014.6
20260505054023 50 267 0.0 2.6 0.00 0.00 0.00 94 1014.4
20260505053002 50 264 0.0 2.6 0.00 0.00 0.00 94 1014.3
20260505052002 50 249 0.0 1.7 0.00 0.00 0.00 94 1014.5
20260505051002 50 252 0.0 1.7 0.00 0.00 0.00 94 1014.6
20260505041003 49 244 0.0 2.6 0.00 0.00 0.00 95 1014.8
20260505040003 49 248 0.9 2.6 0.00 0.00 0.00 96 1014.4
20260505035023 49 251 0.0 2.6 0.00 0.00 0.00 96 1014.1
20260505034002 48 247 0.0 1.7 0.00 0.00 0.00 96 1014.4
20260505033002 48 247 0.0 1.7 0.00 0.00 0.00 96 1014.3
20260505032002 48 230 0.9 1.7 0.00 0.00 0.00 96 1014.3
20260505031002 49 251 0.0 1.7 0.00 0.00 0.00 96 1014.3
20260505030003 49 229 0.0 2.6 0.00 0.00 0.00 96 1014.3
20260505025023 49 237 0.0 1.7 0.00 0.00 0.00 96 1014.3
20260505024002 49 262 0.0 0.9 0.00 0.00 0.00 96 1014.4
20260505023003 50 262 0.0 1.7 0.00 0.00 0.00 96 1014.4
20260505022003 50 240 0.0 1.7 0.00 0.00 0.00 96 1014.5
20260505021002 50 252 0.0 0.9 0.00 0.00 0.00 96 1014.7
20260505020002 50 257 0.0 1.7 0.00 0.00 0.00 95 1014.6
20260505015002 50 255 0.0 0.9 0.00 0.00 0.00 95 1014.8
20260505014003 50 247 0.0 0.9 0.00 0.00 0.00 95 1014.8
20260505013023 51 245 0.0 1.7 0.00 0.00 0.00 95 1014.5
20260505012002 51 253 0.0 0.9 0.00 0.00 0.00 95 1014.5
20260505011002 51 248 0.0 0.9 0.00 0.00 0.00 95 1014.5
20260505010003 52 0 0.0 0.0 0.00 0.00 0.00 95 1014.8
20260505005003 52 241 0.0 0.9 0.00 0.00 0.00 94 1014.6
20260505004003 52 0 0.0 0.9 0.00 0.00 0.00 94 1014.9
20260505003002 52 228 0.0 1.7 0.00 0.00 0.00 94 1014.8
20260505002002 52 250 0.0 1.7 0.00 0.00 0.00 93 1014.8
20260505001003 52 213 0.0 0.9 0.00 0.00 0.00 93 1014.7
20260505000024 53 243 0.0 1.7 0.00 0.00 0.00 92 1014.7
20260504235003 53 251 0.9 1.7 0.00 0.00 0.00 92 1014.7
20260504234003 54 256 0.0 1.7 0.00 0.00 0.00 92 1014.8
20260504233002 54 259 0.0 0.9 0.00 0.00 0.00 92 1014.8
20260504232003 54 260 0.0 0.9 0.00 0.00 0.00 92 1014.7
20260504231003 54 0 0.0 0.0 0.00 0.00 0.00 92 1014.8
20260504230003 54 0 0.0 0.0 0.00 0.00 0.00 92 1014.9
20260504225003 54 0 0.0 0.0 0.00 0.00 0.00 92 1015.0
20260504224003 54 0 0.0 0.0 0.00 0.00 0.00 92 1015.0
20260504223003 54 0 0.0 0.0 0.00 0.00 0.00 92 1014.9
20260504222003 54 0 0.0 0.0 0.00 0.00 0.00 92 1015.1
20260504221003 54 0 0.0 0.0 0.00 0.00 0.00 91 1014.8
20260504220003 54 0 0.0 0.0 0.00 0.00 0.00 90 1014.9
20260504215003 54 0 0.0 0.0 0.00 0.00 0.00 90 1015.0
20260504213003 56 0 0.0 0.0 0.00 0.00 0.00 88 1014.9
20260504212003 56 260 0.0 0.9 0.00 0.00 0.00 88 1015.0
20260504211003 56 255 0.0 1.7 0.00 0.00 0.00 87 1014.8
20260504210005 56 254 0.0 0.9 0.00 0.00 0.00 87 1014.9
20260504205003 57 0 0.0 0.0 0.00 0.00 0.00 86 1014.9
20260504204003 57 0 0.0 0.0 0.00 0.00 0.00 87 1014.8
20260504203003 57 0 0.0 0.0 0.00 0.00 0.00 87 1014.9
20260504202003 57 0 0.0 0.0 0.00 0.00 0.00 86 1014.8
20260504201024 57 0 0.0 0.0 0.00 0.00 0.00 86 1014.7
20260504200003 57 0 0.0 0.0 0.00 0.00 0.00 85 1014.8
20260504195003 57 0 0.0 0.0 0.00 0.00 0.00 85 1014.6
20260504194003 58 0 0.0 0.9 0.00 0.00 0.00 85 1014.4
20260504193003 58 252 0.0 0.9 0.00 0.00 0.00 85 1014.3
20260504192003 58 252 0.0 0.9 0.00 0.00 0.00 84 1014.3
20260504191003 59 247 0.0 0.9 0.00 0.00 0.00 84 1014.3
20260504190024 59 211 0.0 0.9 0.00 0.00 0.00 83 1014.0